Simultaneous Nadir Overpasses (SNOs) Predictions

Prediction of SNOs between NOAA-19 and TERRA Satellite Orbit:

Table of predicted SNOs for the next 14.0 days since TLE Epoch: 1/3/2017
Index Date (NOAA-19) Time (NOAA-19) Lat,Lon (NOAA-19) SZA (NOAA-19 ) Date (TERRA) Time (TERRA) Lat,Lon (TERRA) SZA (TERRA ) Distance(km) Time Diff (sec)
1 01/03/2017 14:57:14 74.76, -35.05 97.57 01/03/2017 14:58:01 74.77, -35.14 97.59 2.92 47
2 01/03/2017 15:48:18 -74.72, 132.30 82.48 01/03/2017 15:47:30 -74.69, 132.29 82.51 3.19 48
3 01/05/2017 20:31:14 -74.78, 61.42 82.66 01/05/2017 20:31:45 -74.77, 61.43 82.67 1.53 31
4 01/05/2017 21:22:09 74.71,-131.09 97.27 01/05/2017 21:21:12 74.70,-131.10 97.25 0.66 57
5 01/08/2017 02:05:05 74.79, 157.99 97.06 01/08/2017 02:05:27 74.78, 158.03 97.05 1.75 22
6 01/08/2017 02:56:08 -74.68, -34.46 83.05 01/08/2017 02:54:56 -74.70, -34.53 83.04 3.19 72
7 01/10/2017 07:39:04 -74.76,-105.36 83.30 01/10/2017 07:39:11 -74.78,-105.40 83.28 2.43 7
8 01/10/2017 08:29:53 74.42, 62.88 96.40 01/10/2017 08:28:43 74.46, 61.43 96.37 43.25 70
9 01/12/2017 12:22:11 -75.36,-177.86 83.10 01/12/2017 12:23:18 -75.26,-175.21 83.11 75.49 67
10 01/12/2017 13:12:55 74.80, -8.86 96.38 01/12/2017 13:12:53 74.79, -8.81 96.37 1.85 2
11 01/14/2017 17:55:55 75.08, -80.38 96.25 01/14/2017 17:57:06 74.96, -79.43 96.17 30.11 71
12 01/14/2017 18:46:54 -74.77, 87.78 84.05 01/14/2017 18:46:37 -74.79, 87.75 84.03 2.32 17
13 01/16/2017 23:29:50 -74.87, 16.82 84.37 01/16/2017 23:30:52 -74.86, 16.87 84.37 1.60 62
14 01/17/2017 00:20:44 74.77,-175.62 95.53 01/17/2017 00:20:19 74.78,-175.68 95.54 2.63 25




NCC Satellite Simultaneous Nadir Overpasses (SNOs) Prediction Service
